Location: ???? ??????? ????
(31.2176°N, 31.6797°E)
Time: 02:16:24
(UTC+00:00)

CZ-4 R/B - Pass Details

Date: 29 October 2020
Orbit: 531 x 598 km, 97.7° (Epoch: 25 November)

Event Time Altitude Azimuth Distance (km) Brightness Sun altitude
Rises 17:18:55 0° 195° (SSW) 2,711 5.0 -28.7°
Reaches altitude 10° 17:21:24 10° 211° (SSW) 1,810 4.3 -29.3°
Maximum altitude 17:24:29 22° 263° (W) 1,204 3.7 -29.9°
Drops below altitude 10° 17:27:33 10° 316° (NW) 1,797 4.4 -30.6°
Sets 17:30:01 0° 331° (NNW) 2,685 5.2 -31.1°
